FW1957 Weather Reports


Display with metric or nautical units.
time (UTC)temp
F
wind
direction
speed
MPH
gust
MPH
rain 1hr
in
rain 24hr
in
rain mn
in
humidity
%
barometer
mb
20260903165708 78 304 8.0 16.0 0.00 0.00 0.00 45 1017.1
20260903164219 79 309 10.0 16.0 0.00 0.00 0.00 44 1016.9
20260903163713 79 335 8.0 18.0 0.00 0.00 0.00 44 1016.8
20260903163209 79 300 8.0 18.0 0.00 0.00 0.00 45 1016.8
20260903162718 79 285 10.0 18.0 0.00 0.00 0.00 44 1016.9
20260903162208 79 317 9.0 17.0 0.00 0.00 0.00 45 1016.8
20260903161706 79 310 8.0 14.0 0.00 0.00 0.00 46 1016.8
20260903161212 79 320 8.0 12.0 0.00 0.00 0.00 45 1016.9
20260903160720 79 342 7.0 17.0 0.00 0.00 0.00 45 1016.8
20260903160209 79 267 7.0 17.0 0.00 0.00 0.00 45 1016.8
20260903155707 79 288 8.0 15.0 0.00 0.00 0.00 45 1016.7
20260903155213 80 281 8.0 17.0 0.00 0.00 0.00 46 1016.8
20260903154712 80 326 9.0 17.0 0.00 0.00 0.00 45 1016.9
20260903154212 80 339 11.0 18.0 0.00 0.00 0.00 44 1016.9
20260903153712 80 290 10.0 18.0 0.00 0.00 0.00 44 1016.9
20260903153217 80 300 9.0 18.0 0.00 0.00 0.00 44 1016.9
20260903152707 81 327 8.0 15.0 0.00 0.00 0.00 44 1016.9
20260903152210 81 292 9.0 15.0 0.00 0.00 0.00 44 1017.0
20260903151719 81 323 8.0 20.0 0.00 0.00 0.00 44 1017.0
20260903151210 81 281 9.0 20.0 0.00 0.00 0.00 44 1017.0
20260903150718 81 304 10.0 19.0 0.00 0.00 0.00 44 1017.0
20260903150215 81 319 9.0 19.0 0.00 0.00 0.00 44 1016.9
20260903145711 80 284 9.0 19.0 0.00 0.00 0.00 44 1016.9
20260903145220 80 303 11.0 19.0 0.00 0.00 0.00 44 1016.9
20260903144715 80 313 10.0 19.0 0.00 0.00 0.00 44 1017.0
20260903144211 80 298 9.0 19.0 0.00 0.00 0.00 45 1016.9
20260903143705 80 307 9.0 16.0 0.00 0.00 0.00 45 1016.9
20260903143208 80 342 9.0 16.0 0.00 0.00 0.00 44 1016.8
20260903142709 80 309 9.0 18.0 0.00 0.00 0.00 44 1016.8
20260903142215 80 320 10.0 18.0 0.00 0.00 0.00 43 1016.8
20260903141715 80 319 10.0 18.0 0.00 0.00 0.00 43 1016.8
20260903140708 81 302 7.0 14.0 0.00 0.00 0.00 42 1016.9
20260903140216 81 339 7.0 14.0 0.00 0.00 0.00 43 1016.8
20260903135717 81 300 7.0 14.0 0.00 0.00 0.00 42 1017.0
20260903135208 80 350 6.0 15.0 0.00 0.00 0.00 43 1017.0
20260903134210 80 321 7.0 19.0 0.00 0.00 0.00 42 1016.9
20260903133219 80 283 12.0 20.0 0.00 0.00 0.00 41 1017.0
20260903132706 80 294 12.0 20.0 0.00 0.00 0.00 41 1017.1
20260903131707 80 317 10.0 24.0 0.00 0.00 0.00 40 1017.2
20260903131216 80 348 12.0 24.0 0.00 0.00 0.00 39 1017.3
20260903130709 81 332 10.0 17.0 0.00 0.00 0.00 39 1017.1
20260903130217 81 336 9.0 18.0 0.00 0.00 0.00 39 1017.2
20260903125208 81 324 11.0 20.0 0.00 0.00 0.00 42 1017.4
20260903123710 82 317 8.0 21.0 0.00 0.00 0.00 43 1017.7
20260903123217 82 297 9.0 19.0 0.00 0.00 0.00 41 1017.7
20260903122213 81 303 11.0 22.0 0.00 0.00 0.00 41 1017.8
20260903121712 81 308 12.0 22.0 0.00 0.00 0.00 40 1017.7
20260903121207 81 325 10.0 18.0 0.00 0.00 0.00 40 1017.8
20260903120719 80 21 10.0 21.0 0.00 0.00 0.00 43 1017.8
20260903120207 80 309 12.0 22.0 0.00 0.00 0.00 40 1017.8
20260903115715 80 303 12.0 22.0 0.00 0.00 0.00 41 1017.8
20260903115210 80 313 10.0 19.0 0.00 0.00 0.00 41 1017.9
20260903114710 80 17 10.0 19.0 0.00 0.00 0.00 43 1017.9
20260903113710 80 329 8.0 16.0 0.00 0.00 0.00 44 1018.0
20260903112719 80 344 9.0 19.0 0.00 0.00 0.00 43 1018.0
20260903111214 79 327 8.0 15.0 0.00 0.00 0.00 45 1017.9
20260903110712 79 19 8.0 16.0 0.00 0.00 0.00 45 1018.0
20260903110213 78 316 8.0 17.0 0.00 0.00 0.00 45 1018.0
20260903105710 78 328 10.0 17.0 0.00 0.00 0.00 45 1018.0
20260903105211 78 309 10.0 17.0 0.00 0.00 0.00 45 1018.1
20260903104216 78 350 6.0 14.0 0.00 0.00 0.00 47 1018.3
20260903103711 78 299 6.0 14.0 0.00 0.00 0.00 49 1018.3
20260903103217 78 298 7.0 14.0 0.00 0.00 0.00 48 1018.4
20260903102716 78 327 9.0 14.0 0.00 0.00 0.00 47 1018.3
20260903102219 78 314 9.0 14.0 0.00 0.00 0.00 48 1018.4
20260903101219 78 344 7.0 14.0 0.00 0.00 0.00 48 1018.5
20260903100731 78 333 7.0 14.0 0.00 0.00 0.00 47 1018.5
20260903100214 78 0 7.0 16.0 0.00 0.00 0.00 48 1018.5
20260903095715 78 309 8.0 16.0 0.00 0.00 0.00 48 1018.6
20260903095219 78 309 10.0 16.0 0.00 0.00 0.00 48 1018.6
20260903094219 78 266 9.0 15.0 0.00 0.00 0.00 48 1018.8
20260903093730 77 294 9.0 20.0 0.00 0.00 0.00 48 1018.9
20260903093211 77 10 10.0 20.0 0.00 0.00 0.00 49 1018.9
20260903092707 77 304 10.0 20.0 0.00 0.00 0.00 48 1019.0
20260903092216 77 333 10.0 20.0 0.00 0.00 0.00 49 1018.9
20260903091710 77 301 10.0 20.0 0.00 0.00 0.00 48 1019.0
20260903091218 77 327 9.0 20.0 0.00 0.00 0.00 49 1019.1
20260903090712 77 319 10.0 20.0 0.00 0.00 0.00 50 1019.2
20260903090208 77 321 9.0 19.0 0.00 0.00 0.00 49 1019.2
20260903085707 77 5 8.0 19.0 0.00 0.00 0.00 49 1019.2
20260903085211 77 300 7.0 19.0 0.00 0.00 0.00 48 1019.3
20260903084731 77 319 5.0 19.0 0.00 0.00 0.00 51 1019.3
20260903084211 77 293 6.0 19.0 0.00 0.00 0.00 50 1019.3
20260903083715 77 342 6.0 12.0 0.00 0.00 0.00 49 1019.3
20260903083214 77 331 6.0 12.0 0.00 0.00 0.00 51 1019.3
20260903082708 77 282 6.0 12.0 0.00 0.00 0.00 52 1019.2
20260903082211 77 340 4.0 12.0 0.00 0.00 0.00 52 1019.3
20260903081717 77 307 4.0 12.0 0.00 0.00 0.00 54 1019.2
20260903080715 76 0 4.0 9.0 0.00 0.00 0.00 55 1019.2
20260903080216 76 333 4.0 13.0 0.00 0.00 0.00 58 1019.2
20260903075719 75 43 5.0 14.0 0.00 0.00 0.00 59 1019.2
20260903075215 74 289 8.0 15.0 0.00 0.00 0.00 61 1019.2
20260903074714 73 242 9.0 15.0 0.00 0.00 0.00 62 1019.2
20260903074216 72 296 7.0 15.0 0.00 0.00 0.00 64 1019.2
20260903073710 72 246 4.0 10.0 0.00 0.00 0.00 69 1019.1
20260903073208 71 167 4.0 10.0 0.00 0.00 0.00 70 1019.2
20260903072217 70 190 4.0 8.0 0.00 0.00 0.00 72 1019.1
20260903071217 69 189 3.0 6.0 0.00 0.00 0.00 73 1019.2
20260903070705 69 172 3.0 6.0 0.00 0.00 0.00 72 1019.3
20260903070220 69 205 3.0 6.0 0.00 0.00 0.00 72 1019.3
20260903065706 69 227 2.0 6.0 0.00 0.00 0.00 72 1019.3
20260903065207 68 218 2.0 6.0 0.00 0.00 0.00 74 1019.3
20260903064710 68 190 1.0 5.0 0.00 0.00 0.00 74 1019.3
20260903063711 67 192 3.0 7.0 0.00 0.00 0.00 73 1019.2
20260903063214 67 159 4.0 8.0 0.00 0.00 0.00 73 1019.2
20260903062707 67 234 5.0 9.0 0.00 0.00 0.00 73 1019.3
20260903062216 67 238 5.0 9.0 0.00 0.00 0.00 74 1019.3
20260903061705 66 238 5.0 9.0 0.00 0.00 0.00 75 1019.3
20260903061241 66 239 4.0 7.0 0.00 0.00 0.00 75 1019.4
20260903060214 66 222 3.0 8.0 0.00 0.00 0.00 76 1019.4
20260903055719 66 226 4.0 8.0 0.00 0.00 0.00 74 1019.4
20260903055206 66 278 3.0 8.0 0.00 0.00 0.00 74 1019.3
20260903054709 66 284 2.0 6.0 0.00 0.00 0.00 75 1019.2
20260903054219 67 286 1.0 5.0 0.00 0.00 0.00 75 1019.1
20260903053719 67 286 2.0 5.0 0.00 0.00 0.00 75 1019.0
20260903053212 67 258 2.0 6.0 0.00 0.00 0.00 74 1019.1
20260903052711 67 178 2.0 6.0 0.00 0.00 0.00 73 1019.0
20260903051716 67 214 3.0 11.0 0.00 0.00 0.00 71 1019.1
20260903051213 67 184 5.0 11.0 0.00 0.00 0.00 71 1019.1
20260903050715 67 211 6.0 11.0 0.00 0.00 0.00 69 1019.1
20260903050208 67 240 6.0 10.0 0.00 0.00 0.00 69 1018.9
20260903045716 67 217 5.0 9.0 0.00 0.00 0.00 70 1018.8
20260903045209 66 223 4.0 9.0 0.00 0.00 0.00 71 1018.8
20260903044719 66 207 5.0 9.0 0.00 0.00 0.00 71 1018.7
20260903044205 66 225 4.0 7.0 0.00 0.00 0.00 72 1018.7
20260903043719 66 250 2.0 5.0 0.00 0.00 0.00 72 1018.6
20260903043213 66 225 3.0 8.0 0.00 0.00 0.00 71 1018.6
20260903042719 66 220 4.0 8.0 0.00 0.00 0.00 71 1018.6
20260903041714 65 255 5.0 11.0 0.00 0.00 0.00 72 1018.6
20260903041210 65 236 5.0 11.0 0.00 0.00 0.00 72 1018.7
20260903040705 65 246 6.0 11.0 0.00 0.00 0.00 73 1018.7
20260903040216 65 236 6.0 10.0 0.00 0.00 0.00 73 1018.6
20260903035708 64 269 4.0 6.0 0.00 0.00 0.00 74 1018.7
20260903034714 64 215 3.0 5.0 0.00 0.00 0.00 75 1018.5
20260903033712 64 243 3.0 6.0 0.00 0.00 0.00 74 1018.5
20260903033208 64 254 3.0 6.0 0.00 0.00 0.00 74 1018.4
20260903032707 64 253 3.0 9.0 0.00 0.00 0.00 74 1018.4
20260903030216 64 278 3.0 5.0 0.00 0.00 0.00 77 1018.4
20260903025213 63 235 3.0 6.0 0.00 0.00 0.00 78 1018.4
20260903024713 63 232 3.0 8.0 0.00 0.00 0.00 78 1018.4
20260903024208 63 248 4.0 8.0 0.00 0.00 0.00 78 1018.4
20260903023716 63 240 5.0 8.0 0.00 0.00 0.00 78 1018.5
20260903023208 63 246 5.0 8.0 0.00 0.00 0.00 78 1018.5
20260903022710 64 240 3.0 5.0 0.00 0.00 0.00 79 1018.5
20260903022217 64 245 2.0 5.0 0.00 0.00 0.00 78 1018.4
20260903021707 64 236 0.0 0.0 0.00 0.00 0.00 77 1018.4
20260903021220 64 255 0.0 0.0 0.00 0.00 0.00 76 1018.3
20260903020716 64 255 0.0 0.0 0.00 0.00 0.00 76 1018.3
20260903020218 64 255 0.0 0.0 0.00 0.00 0.00 76 1018.4
20260903015716 64 255 0.0 0.0 0.00 0.00 0.00 76 1018.4
20260903015214 64 255 0.0 0.0 0.00 0.00 0.00 76 1018.4
20260903014709 64 255 0.0 1.0 0.00 0.00 0.00 76 1018.4
20260903014228 65 255 0.0 1.0 0.00 0.00 0.00 76 1018.4
20260903013220 65 269 0.0 2.0 0.00 0.00 0.00 77 1018.4
20260903012715 65 269 0.0 2.0 0.00 0.00 0.00 77 1018.4
20260903012219 65 281 0.0 2.0 0.00 0.00 0.00 77 1018.4
20260903010716 65 309 0.0 2.0 0.00 0.00 0.00 74 1018.5
20260903010205 65 309 0.0 2.0 0.00 0.00 0.00 74 1018.5
20260903005719 65 309 0.0 2.0 0.00 0.00 0.00 74 1018.5
20260903004712 65 320 1.0 2.0 0.00 0.00 0.00 74 1018.5
20260903004214 65 323 1.0 2.0 0.00 0.00 0.00 75 1018.6
20260903003707 66 272 0.0 3.0 0.00 0.00 0.00 75 1018.6
20260903003208 66 272 1.0 3.0 0.00 0.00 0.00 74 1018.6
20260903002709 66 315 2.0 4.0 0.00 0.00 0.00 74 1018.6
20260903002205 66 267 2.0 4.0 0.00 0.00 0.00 74 1018.6
20260903000710 66 279 1.0 3.0 0.00 0.00 0.00 73 1018.6
20260903000213 67 247 1.0 3.0 0.00 0.00 0.00 72 1018.6
20260902235710 67 247 1.0 3.0 0.00 0.00 0.00 73 1018.7
20260902235205 67 234 1.0 3.0 0.00 0.00 0.00 73 1018.6
20260902234712 67 192 0.0 2.0 0.00 0.00 0.00 73 1018.6
20260902234205 67 192 0.0 0.0 0.00 0.00 0.00 72 1018.7
20260902233708 68 263 0.0 0.0 0.00 0.00 0.00 71 1018.7
20260902233210 68 263 0.0 0.0 0.00 0.00 0.00 69 1018.7
20260902232717 68 263 0.0 0.0 0.00 0.00 0.00 68 1018.7
20260902232216 68 263 0.0 0.0 0.00 0.00 0.00 66 1018.7
20260902231719 68 263 0.0 0.0 0.00 0.00 0.00 65 1018.7
20260902231209 69 263 0.0 0.0 0.00 0.00 0.00 65 1018.6
20260902230718 69 263 0.0 1.0 0.00 0.00 0.00 65 1018.6
20260902230219 69 269 0.0 3.0 0.00 0.00 0.00 64 1018.7
20260902225716 69 274 0.0 3.0 0.00 0.00 0.00 63 1018.7
20260902225209 70 274 1.0 3.0 0.00 0.00 0.00 63 1018.6
20260902224705 70 271 0.0 3.0 0.00 0.00 0.00 61 1018.5
20260902224215 70 319 1.0 3.0 0.00 0.00 0.00 60 1018.5
20260902223714 70 310 1.0 3.0 0.00 0.00 0.00 60 1018.5
20260902223215 70 327 2.0 3.0 0.00 0.00 0.00 59 1018.4
20260902222710 71 355 2.0 4.0 0.00 0.00 0.00 59 1018.3
20260902222220 71 355 2.0 7.0 0.00 0.00 0.00 59 1018.3
20260902221208 71 355 4.0 9.0 0.00 0.00 0.00 57 1018.2
20260902220712 71 335 5.0 12.0 0.00 0.00 0.00 56 1018.2
20260902215711 71 294 6.0 12.0 0.00 0.00 0.00 56 1018.2
20260902215209 71 271 7.0 13.0 0.00 0.00 0.00 57 1018.2
20260902214748 71 280 7.0 13.0 0.00 0.00 0.00 57 1018.2
20260902214212 71 261 7.0 13.0 0.00 0.00 0.00 57 1018.1
20260902213214 71 283 5.0 11.0 0.00 0.00 0.00 58 1018.1
20260902212712 70 261 6.0 11.0 0.00 0.00 0.00 58 1018.1
20260902212241 70 327 6.0 10.0 0.00 0.00 0.00 59 1018.1
20260902211713 70 270 5.0 10.0 0.00 0.00 0.00 59 1018.0
20260902211219 70 306 5.0 9.0 0.00 0.00 0.00 59 1018.0
20260902210719 70 279 5.0 9.0 0.00 0.00 0.00 60 1018.0
20260902210214 69 304 5.0 8.0 0.00 0.00 0.00 60 1018.1
20260902205705 69 275 4.0 9.0 0.00 0.00 0.00 61 1018.1
20260902205220 69 278 4.0 9.0 0.00 0.00 0.00 64 1018.1
20260902204710 69 260 4.0 9.0 0.00 0.00 0.00 62 1018.1
20260902204211 69 270 4.0 8.0 0.00 0.00 0.00 62 1018.1
20260902203713 69 273 5.0 8.0 0.00 0.00 0.00 62 1018.1
20260902203207 69 280 5.0 8.0 0.00 0.00 0.00 63 1018.1
20260902202706 69 254 4.0 9.0 0.00 0.00 0.00 64 1018.0
20260902202213 68 318 4.0 9.0 0.00 0.00 0.00 65 1018.1
20260902201718 68 292 4.0 9.0 0.00 0.00 0.00 67 1018.1
20260902201220 68 288 3.0 7.0 0.00 0.00 0.00 68 1018.1
20260902200717 68 283 3.0 7.0 0.00 0.00 0.00 69 1018.1
20260902200217 68 296 3.0 4.0 0.00 0.00 0.00 71 1018.1
20260902195714 69 287 2.0 4.0 0.00 0.00 0.00 72 1018.1
20260902194214 69 234 3.0 7.0 0.00 0.00 0.00 72 1018.0
20260902193707 69 243 4.0 7.0 0.00 0.00 0.00 71 1018.0
20260902193219 69 250 4.0 8.0 0.00 0.00 0.00 71 1018.1
20260902192710 69 229 4.0 9.0 0.00 0.00 0.00 71 1018.0
20260902191709 70 245 6.0 9.0 0.00 0.00 0.00 70 1018.0
20260902191205 70 246 5.0 8.0 0.00 0.00 0.00 70 1017.9
20260902190714 71 234 4.0 6.0 0.00 0.00 0.00 70 1017.9
20260902190215 71 232 4.0 6.0 0.00 0.00 0.00 70 1017.8
20260902185217 71 243 3.0 6.0 0.00 0.00 0.00 68 1017.7
20260902184710 71 267 4.0 6.0 0.00 0.00 0.00 68 1017.6
20260902184211 72 221 3.0 5.0 0.00 0.00 0.00 68 1017.6
20260902183709 72 223 2.0 4.0 0.00 0.00 0.00 67 1017.6
20260902182713 72 217 3.0 4.0 0.00 0.00 0.00 67 1017.4
20260902182209 73 227 2.0 5.0 0.00 0.00 0.00 67 1017.4
20260902181207 73 161 2.0 4.0 0.00 0.00 0.00 66 1017.2
20260902180710 73 227 2.0 5.0 0.00 0.00 0.00 65 1017.2
20260902180215 74 271 3.0 5.0 0.00 0.00 0.00 63 1017.2
20260902175712 74 272 3.0 6.0 0.00 0.00 0.00 63 1017.2
20260902175213 74 290 3.0 7.0 0.00 0.00 0.00 63 1017.2
20260902174710 74 223 4.0 7.0 0.00 0.00 0.00 62 1017.1
20260902174218 74 217 4.0 8.0 0.00 0.00 0.00 61 1017.1
20260902173705 75 213 4.0 8.0 0.00 0.00 0.00 61 1017.1
20260902173208 75 217 4.0 6.0 0.00 0.00 0.00 61 1017.1
20260902172208 76 221 3.0 6.0 0.00 0.00 0.00 59 1017.0
20260902171714 76 215 2.0 3.0 0.00 0.00 0.00 59 1016.9
20260902171213 76 221 2.0 5.0 0.00 0.00 0.00 61 1016.9
20260902170715 77 169 2.0 5.0 0.00 0.00 0.00 60 1017.0
20260902170218 77 180 2.0 5.0 0.00 0.00 0.00 59 1017.0